Flag for Germany Weather past 2 weeks in Herford, North Rhine-Westphalia, Germany

Now
43 °F

Mostly cloudy.


Feels Like: 36 °F
Forecast: 39 / 53 °F
Wind: 12 mph from West

Location: Bueckeburg

Current Time: Mar 27, 2015 at 8:13:13 PM

Latest Report: Mar 27, 2015 at 7:20 PM


Visibility: N/A

Pressure: 30.09 "Hg

Humidity: 87%

Dew point: 39 °F

Location of HerfordLocation

Historic Weather in Herford — Graph

°F

Herford temperature yesterday

Maximum temperature yesterday: 46 °F (at 3:20 PM)
Minimum temperature yesterday: 41 °F (at 3:20 AM)
Average temperature yesterday: 43 °F

Past Weeks' High & Low Weather Summary

 TemperatureHumidityPressure
High63 °F (Mar 25, 3:20 PM)100% (Mar 18, 3:20 AM)30.45 "Hg (Mar 18, 3:20 AM)
Low30 °F (Mar 20, 5:20 AM)39% (Mar 25, 3:20 PM)29.62 "Hg (Mar 25, 3:20 PM)
Average42 °F78%30.13 "Hg
* Reported Mar 12 6:20 PM — Mar 27 6:20 PM, Herford, Weather by CustomWeather, © 2015

Note: Actual official high and low records may vary slightly from our data, if they occured in-between our weather recording intervals... More about our weather records

Advertising

Herford weather history for previous 24 hours

 ConditionsComfort  
Time TempWeatherWind HumidityBarometerVisibility
6:20 PM
Fri, Mar 27
43 °FDrizzle. More clouds than sun.13 mph87%30.07 "Hg3 mi
5:20 PM45 °FDrizzle. Partly sunny.17 mph76%30.01 "HgN/A
4:20 PM45 °FSprinkles. Partly sunny.20 mph76%29.98 "HgN/A
3:20 PM45 °FPartly sunny.18 mph76%29.95 "HgN/A
2:20 PM45 °FPartly sunny.16 mph76%29.95 "HgN/A
1:20 PM45 °FSprinkles. Mostly cloudy.15 mph76%29.92 "HgN/A
12:20 PM45 °FBroken clouds.16 mph81%29.89 "HgN/A
11:20 AM45 °FDrizzle. Broken clouds.16 mph76%29.89 "HgN/A
10:20 AM45 °FBroken clouds.16 mph81%29.89 "HgN/A
9:20 AM43 °FLight rain. Broken clouds.15 mph81%29.86 "HgN/A
8:20 AM45 °FBroken clouds.16 mph76%29.83 "HgN/A
7:20 AM43 °FPartly sunny.12 mph87%29.83 "HgN/A
6:20 AM43 °FLight rain. Partly sunny.12 mph87%29.80 "HgN/A
5:20 AM43 °FPassing clouds.9 mph87%29.77 "HgN/A
4:20 AM43 °FPartly cloudy.9 mph87%29.77 "HgN/A
3:20 AM43 °FPassing clouds.12 mph87%29.74 "HgN/A
2:20 AM43 °FPassing clouds.10 mph87%29.74 "HgN/A
1:20 AM41 °FPassing clouds.9 mph87%29.74 "HgN/A
12:20 AM43 °FPassing clouds.13 mph76%29.74 "HgN/A
11:20 PM
Thu, Mar 26
43 °FPassing clouds.8 mph76%29.71 "HgN/A
10:20 PM41 °FLight rain. Passing clouds.8 mph87%29.71 "HgN/A
9:20 PM41 °FLight rain. Passing clouds.7 mph87%29.74 "HgN/A
8:20 PM41 °FLight rain. Fog.2 mph87%29.74 "Hg3 mi
Weather by CustomWeather, © 2015

See weather overviewHow to use our weather pages